STARLINK-2273, 47993

Orbit data source: Space-Track

STARLINK-2273, 47993 is a payload satellite owned by SpaceX/Seattle (US) in LEO that was launched on Wed, 24 Mar 2021 UTC via an FALCON 9 launch vehicle from the Air Force Eastern Test Range (AFETR). Payload-class satellites include a variety of spacecraft equipped with specific instruments for various scientific and technological missions. These include communications satellites like Starlink; space stations such as the ISS; scientific satellites like the Hubble; Earth observation satellites from companies like Planet Labs, Umbra, and HawkEye 360; GPS; miniature CubeSats for education and research; and military/defense satellites.

Loading next visibility...
Identifier
47993, 2021-024S
Orbit
LEO
Country
Flag of USUS
Related business
Manufacturer
SpaceX/Seattle
Mission
Partially operational Commercial Communications
Bus & Motor
STARLINK, Unknown motor
Mass
260 kg wet, ~248 kg dry
Launch date (UTC)
2021-03-24 (5 years ago)
Launch vehicle
FALCON 9
Launch site
Air Force Eastern Test Range (AFETR)
Object type
Payload
Rocket body
Debris
Shape & HBR
Box + 1 Pan, 10.1 m
Radar Cross Section
13.562 m², Large (>1 m²)

Expand to show TLE details & history
Last TLE update: 12 hours ago

TLE from 12 hours ago
0 STARLINK-2273
1 47993U 21024S   26129.98130938  .00044956  00000-0  95182-3 0  9998
2 47993  53.1540   7.5378 0003183 150.7825 209.3360 15.44689802284560
Epoch: 2026-05-09T23:33Z
TLE epoch observation values (Epoch: 2026-05-09T23:33:05.130Z)
Latitude
-0.00006°
Longitude
146.47543°
Altitude
435.084 km
Speed
7.651 km/s
True Right ascension
00h 30m 09s
True Declination
0° 00' 00"
Sunlit
Object was in daylight at epoch
Visualization orbit readout
Latitude
Unknown
Longitude
Unknown
Altitude
Unknown
Speed
Unknown
Apparent Right ascension
Unknown
Apparent Declination
Unknown
Sunlit
N/A
Visualization observer readout
Local Sidereal Time
19:52:25
Azimuth
Unknown
Elevation
Unknown
Doppler factor
Unknown
Orbital elements
Apogee altitude
434.716 km
Perigee altitude
430.381 km
Semi-major axis
6,810.686 km
Eccentricity
0.00032
Inclination
53.154°
RAAN
7.5378°
Arg. of periapsis
150.7825°
True anomaly
209.31814°
Mean anomaly
209.336°
Eccentric anomaly
209.32707°
Mean motion
3.86151 °/min
Orbital period
93.23 mins
BSTAR
0.00095182
Loading maneuver chart data...
Computing Atmospheric mass density...

Documentation

Showing up to 5 results
|